Total_Precipitation_Accumulation
0.12 0.21 0.57 0.68 0.66 0.63 0.66 0.68 0.68 0.58 0.57 0.62 0.65 0.68 0.68 0.66 0.66 0.65 0.64 0.67 0.73 0.76 0.80 0.87 0.90 0.86 0.74 0.60 0.52 0.46 0.41 0.41 0.43 0.45 0.48 0.54 0.54 0.53 0.50 0.43 0.37 0.44 0.60
0.13 0.21 0.49 0.62 0.66 0.65 0.71 0.70 0.68 0.56 0.52 0.57 0.63 0.67 0.66 0.65 0.65 0.66 0.69 0.73 0.78 0.81 0.83 0.84 0.81 0.76 0.70 0.57 0.48 0.42 0.39 0.35 0.30 0.28 0.30 0.35 0.46 0.57 0.54 0.48 0.46 0.57 0.60
0.12 0.20 0.41 0.59 0.66 0.67 0.70 0.67 0.67 0.56 0.50 0.52 0.61 0.68 0.68 0.67 0.64 0.68 0.71 0.77 0.81 0.83 0.85 0.81 0.78 0.72 0.58 0.52 0.49 0.42 0.39 0.32 0.25 0.20 0.20 0.26 0.43 0.61 0.56 0.54 0.53 0.59 0.61
0.11 0.20 0.33 0.52 0.65 0.71 0.71 0.67 0.64 0.59 0.57 0.57 0.62 0.69 0.72 0.69 0.65 0.68 0.72 0.76 0.83 0.82 0.87 0.84 0.76 0.72 0.59 0.51 0.48 0.44 0.42 0.35 0.24 0.17 0.12 0.21 0.44 0.71 0.71 0.68 0.64 0.64 0.65
0.15 0.22 0.36 0.56 0.69 0.77 0.77 0.73 0.69 0.64 0.64 0.66 0.68 0.73 0.76 0.78 0.74 0.71 0.66 0.69 0.79 0.83 0.85 0.87 0.76 0.71 0.63 0.55 0.49 0.47 0.48 0.41 0.26 0.14 0.10 0.15 0.41 0.79 0.83 0.75 0.69 0.66 0.62
0.16 0.22 0.39 0.59 0.74 0.78 0.79 0.80 0.71 0.70 0.71 0.71 0.74 0.81 0.83 0.82 0.79 0.76 0.69 0.66 0.66 0.73 0.78 0.80 0.74 0.74 0.68 0.59 0.55 0.57 0.57 0.50 0.26 0.11 0.11 0.16 0.40 0.80 0.86 0.76 0.69 0.66 0.64
0.20 0.26 0.41 0.63 0.78 0.84 0.86 0.86 0.82 0.79 0.80 0.78 0.78 0.85 0.93 0.89 0.86 0.80 0.72 0.66 0.59 0.60 0.65 0.71 0.68 0.68 0.68 0.62 0.61 0.63 0.68 0.52 0.24 0.17 0.15 0.18 0.39 0.88 1.05 0.90 0.77 0.69 0.68
0.24 0.33 0.48 0.75 0.85 0.92 0.98 0.98 0.93 0.94 0.96 0.93 0.92 0.91 0.96 0.97 0.89 0.82 0.75 0.71 0.65 0.63 0.65 0.67 0.66 0.67 0.68 0.64 0.62 0.64 0.65 0.44 0.22 0.21 0.21 0.25 0.49 1.01 1.20 1.16 0.95 0.75 0.69
0.33 0.42 0.53 0.71 0.88 1.04 1.11 1.10 1.05 1.03 1.05 1.02 1.00 0.99 1.00 1.02 1.02 0.96 0.89 0.80 0.74 0.71 0.69 0.64 0.59 0.58 0.58 0.60 0.60 0.57 0.51 0.38 0.22 0.27 0.27 0.36 0.51 0.99 1.19 1.25 1.12 0.92 0.77
0.46 0.53 0.62 0.75 0.88 1.01 1.09 1.14 1.09 1.05 1.07 1.09 1.10 1.08 1.08 1.07 1.08 1.07 0.96 0.84 0.78 0.74 0.68 0.62 0.57 0.52 0.47 0.44 0.44 0.42 0.34 0.29 0.21 0.28 0.41 0.41 0.51 1.01 1.23 1.26 1.16 1.06 0.94
0.62 0.66 0.71 0.86 0.95 1.02 1.05 1.06 1.14 1.17 1.18 1.15 1.12 1.07 1.06 1.04 1.00 0.94 0.87 0.84 0.82 0.81 0.75 0.69 0.65 0.56 0.46 0.37 0.33 0.30 0.25 0.19 0.21 0.33 0.38 0.41 0.63 1.09 1.27 1.26 1.18 1.11 1.07
0.63 0.71 0.78 0.90 0.95 1.04 1.04 1.14 1.27 1.23 1.21 1.17 1.07 1.06 1.01 0.98 0.98 0.89 0.89 0.90 0.86 0.84 0.83 0.80 0.74 0.63 0.50 0.37 0.36 0.36 0.23 0.16 0.17 0.19 0.22 0.31 0.65 1.12 1.30 1.25 1.24 1.22 1.21
0.62 0.75 0.83 0.94 1.03 1.11 1.11 1.14 1.23 1.22 1.22 1.21 1.18 1.12 1.11 1.09 1.08 1.04 0.98 0.99 0.93 0.85 0.84 0.83 0.78 0.65 0.57 0.50 0.46 0.40 0.28 0.22 0.18 0.15 0.15 0.22 0.42 0.73 1.06 1.21 1.27 1.31 1.34
0.73 0.83 0.92 1.06 1.18 1.24 1.26 1.21 1.16 1.20 1.21 1.17 1.18 1.16 1.14 1.12 1.08 1.05 1.00 0.93 0.91 0.89 0.88 0.86 0.83 0.72 0.63 0.53 0.49 0.41 0.33 0.28 0.22 0.19 0.16 0.18 0.27 0.40 0.66 0.93 1.11 1.26 1.38
0.79 0.91 1.03 1.18 1.26 1.32 1.36 1.36 1.26 1.19 1.17 1.14 1.12 1.13 1.11 1.08 1.03 0.97 0.93 0.89 0.86 0.84 0.81 0.76 0.73 0.66 0.58 0.55 0.50 0.43 0.40 0.35 0.31 0.27 0.22 0.22 0.22 0.27 0.42 0.65 0.92 1.16 1.36
0.84 0.97 1.12 1.27 1.34 1.40 1.38 1.33 1.28 1.24 1.19 1.18 1.11 1.05 1.04 1.05 1.03 0.99 0.94 0.91 0.84 0.81 0.81 0.78 0.73 0.68 0.58 0.51 0.46 0.43 0.42 0.39 0.36 0.33 0.29 0.28 0.27 0.28 0.35 0.50 0.72 1.03 1.31
0.91 1.09 1.28 1.42 1.49 1.53 1.50 1.42 1.33 1.31 1.28 1.20 1.15 1.13 1.08 1.04 1.02 1.03 1.01 0.93 0.83 0.77 0.78 0.79 0.81 0.80 0.72 0.62 0.54 0.47 0.43 0.41 0.37 0.34 0.33 0.33 0.33 0.32 0.35 0.44 0.54 0.78 1.12
1.02 1.18 1.34 1.56 1.62 1.60 1.61 1.58 1.51 1.41 1.35 1.30 1.21 1.21 1.18 1.13 1.10 1.10 1.08 1.01 0.92 0.86 0.82 0.77 0.76 0.77 0.76 0.71 0.65 0.59 0.52 0.46 0.39 0.34 0.32 0.32 0.36 0.37 0.37 0.40 0.47 0.60 0.90
1.01 1.13 1.32 1.55 1.66 1.63 1.68 1.66 1.67 1.60 1.48 1.41 1.33 1.26 1.22 1.18 1.14 1.15 1.12 1.07 1.01 0.98 0.92 0.85 0.78 0.71 0.68 0.65 0.62 0.59 0.54 0.52 0.51 0.48 0.42 0.34 0.32 0.37 0.41 0.42 0.46 0.50 0.66
1.08 1.22 1.33 1.56 1.68 1.77 1.82 1.82 1.77 1.71 1.61 1.52 1.43 1.30 1.24 1.24 1.22 1.17 1.14 1.10 1.09 1.05 0.99 0.92 0.84 0.75 0.66 0.63 0.64 0.62 0.56 0.50 0.49 0.46 0.45 0.41 0.35 0.33 0.41 0.47 0.48 0.45 0.49
1.10 1.23 1.32 1.50 1.59 1.80 1.93 1.81 1.70 1.59 1.53 1.51 1.45 1.40 1.35 1.37 1.38 1.33 1.26 1.20 1.17 1.11 1.01 0.93 0.89 0.86 0.81 0.76 0.79 0.75 0.65 0.55 0.51 0.48 0.45 0.43 0.39 0.35 0.37 0.46 0.53 0.49 0.44
0.96 1.07 1.18 1.39 1.57 1.72 1.84 1.78 1.65 1.63 1.57 1.53 1.48 1.50 1.54 1.53 1.52 1.45 1.34 1.29 1.24 1.18 1.11 1.02 0.95 0.93 0.87 0.85 0.89 0.93 0.82 0.70 0.57 0.46 0.44 0.42 0.38 0.37 0.39 0.41 0.49 0.55 0.52
0.87 0.95 1.10 1.34 1.54 1.72 1.86 1.98 1.92 1.93 1.90 1.79 1.65 1.54 1.52 1.53 1.47 1.41 1.30 1.25 1.27 1.26 1.19 1.10 1.02 0.96 0.90 0.79 0.77 0.98 1.01 0.76 0.52 0.43 0.41 0.41 0.39 0.40 0.39 0.40 0.44 0.51 0.57
0.78 0.88 1.02 1.34 1.59 1.73 1.84 1.91 1.92 1.86 1.82 1.71 1.60 1.54 1.47 1.42 1.39 1.34 1.34 1.29 1.22 1.20 1.14 1.08 1.04 0.99 0.94 0.88 0.79 0.76 0.79 0.75 0.73 0.55 0.38 0.36 0.38 0.41 0.42 0.42 0.43 0.48 0.54
0.79 0.84 0.95 1.17 1.44 1.65 1.81 1.83 1.88 1.84 1.74 1.72 1.73 1.68 1.65 1.57 1.46 1.41 1.36 1.36 1.31 1.23 1.15 1.12 1.11 1.08 1.03 0.96 0.87 0.77 0.71 0.63 0.63 0.72 0.53 0.38 0.39 0.40 0.43 0.47 0.49 0.51 0.54
0.89 0.93 0.97 1.07 1.27 1.53 1.71 1.74 1.73 1.74 1.71 1.69 1.73 1.73 1.70 1.59 1.47 1.36 1.33 1.31 1.28 1.21 1.12 1.09 1.10 1.13 1.11 1.03 0.92 0.84 0.83 0.80 0.69 0.72 0.67 0.48 0.45 0.43 0.45 0.50 0.56 0.58 0.59